Location: Arbon
(43.0005°N, 0.7472°E)
Time: 09:11:48
(UTC+00:00)

Vanguard 2 Rocket - Pass Details

Date: 28 November 2020
Orbit: 554 x 3325 km, 32.9° (Epoch: 21 January)

Event Time Altitude Azimuth Distance (km) Brightness Sun altitude
Rises 11:48:03 0° 270° (W) 7,190 11.5 25.6°
Reaches altitude 10° 11:53:25 10° 266° (W) 5,960 11.2 25.5°
Maximum altitude 12:09:37 49° 200° (SSW) 2,734 10.7 25.3°
Drops below altitude 10° 12:19:32 10° 129° (SE) 3,749 10.5 25.1°
Sets 12:22:07 0° 123° (ESE) 4,426 10.7 25.0°
